Time,TemperatureF,DewpointF,PressureIn,WindDirection,WindDirectionDegrees,WindSpeedMPH,WindSpeedGustMPH,Humidity,HourlyPrecipIn,Conditions,Clouds,dailyrainin,SoftwareType,DateUTC
2013-12-09 00:14:00,23.4,21.0,30.25,NE,37,0.0,2.0,90,0.00,,,0.00,weatherlink.com 1.10,2013-12-09 06:14:00,
2013-12-09 00:29:00,23.0,20.0,30.25,NE,47,0.0,1.0,89,0.00,,,0.00,weatherlink.com 1.10,2013-12-09 06:29:00,
2013-12-09 00:44:00,22.2,20.0,30.25,ENE,67,0.0,1.0,90,0.00,,,0.00,weatherlink.com 1.10,2013-12-09 06:44:00,
2013-12-09 00:59:00,22.3,20.0,30.26,NE,49,0.0,2.0,91,0.00,,,0.00,weatherlink.com 1.10,2013-12-09 06:59:00,
2013-12-09 01:14:00,22.3,20.0,30.25,NNE,28,0.0,1.0,90,0.00,,,0.00,weatherlink.com 1.10,2013-12-09 07:14:00,
2013-12-09 01:29:00,22.1,20.0,30.26,NE,51,0.0,1.0,91,0.00,,,0.00,weatherlink.com 1.10,2013-12-09 07:29:00,
2013-12-09 01:44:00,22.2,20.0,30.26,ENE,61,0.0,1.0,91,0.00,,,0.00,weatherlink.com 1.10,2013-12-09 07:44:00,
2013-12-09 01:59:00,22.4,20.0,30.27,NE,55,0.0,1.0,91,0.00,,,0.00,weatherlink.com 1.10,2013-12-09 07:59:00,
2013-12-09 02:14:00,21.5,19.0,30.27,NNE,16,0.0,1.0,90,0.00,,,0.00,weatherlink.com 1.10,2013-12-09 08:14:00,
2013-12-09 02:29:00,20.9,19.0,30.28,NNE,16,0.0,0.0,91,0.00,,,0.00,weatherlink.com 1.10,2013-12-09 08:29:00,
2013-12-09 02:44:00,20.2,18.0,30.27,NNE,16,0.0,0.0,91,0.00,,,0.00,weatherlink.com 1.10,2013-12-09 08:44:00,
2013-12-09 02:59:00,18.9,17.0,30.28,NNE,16,0.0,0.0,91,0.00,,,0.00,weatherlink.com 1.10,2013-12-09 08:59:00,
2013-12-09 03:15:00,18.9,17.0,30.27,NNE,19,0.0,1.0,92,0.00,,,0.00,weatherlink.com 1.10,2013-12-09 09:15:00,
2013-12-09 03:29:00,19.5,18.0,30.27,ENE,59,0.0,1.0,92,0.00,,,0.00,weatherlink.com 1.10,2013-12-09 09:29:00,
2013-12-09 03:45:00,20.6,19.0,30.27,NE,36,0.0,1.0,93,0.00,,,0.00,weatherlink.com 1.10,2013-12-09 09:45:00,
2013-12-09 04:00:00,21.0,19.0,30.27,NNE,19,1.0,2.0,92,0.00,,,0.00,weatherlink.com 1.10,2013-12-09 10:00:00,
2013-12-09 04:15:00,20.9,19.0,30.27,NNE,30,0.0,3.0,92,0.00,,,0.00,weatherlink.com 1.10,2013-12-09 10:15:00,
2013-12-09 04:30:00,20.7,19.0,30.27,ENE,74,0.0,1.0,91,0.00,,,0.00,weatherlink.com 1.10,2013-12-09 10:30:00,
2013-12-09 04:45:00,20.4,19.0,30.27,ENE,58,1.0,1.0,92,0.00,,,0.00,weatherlink.com 1.10,2013-12-09 10:45:00,
2013-12-09 05:00:00,20.6,18.0,30.27,NNE,24,0.0,0.0,91,0.00,,,0.00,weatherlink.com 1.10,2013-12-09 11:00:00,
2013-12-09 05:15:00,20.0,18.0,30.28,NNE,24,0.0,0.0,91,0.00,,,0.00,weatherlink.com 1.10,2013-12-09 11:15:00,
2013-12-09 05:30:00,18.9,17.0,30.28,NNE,24,0.0,0.0,91,0.00,,,0.00,weatherlink.com 1.10,2013-12-09 11:30:00,
2013-12-09 05:45:00,18.2,16.0,30.29,NNE,24,0.0,0.0,92,0.00,,,0.00,weatherlink.com 1.10,2013-12-09 11:45:00,
2013-12-09 06:00:00,17.8,16.0,30.31,NW,314,0.0,0.0,92,0.00,,,0.00,weatherlink.com 1.10,2013-12-09 12:00:00,
2013-12-09 06:15:00,18.1,16.0,30.31,NNE,14,0.0,2.0,93,0.00,,,0.00,weatherlink.com 1.10,2013-12-09 12:15:00,
2013-12-09 06:30:00,19.1,17.0,30.32,NNE,26,0.0,1.0,92,0.00,,,0.00,weatherlink.com 1.10,2013-12-09 12:30:00,
2013-12-09 06:45:00,18.6,17.0,30.33,NNE,26,0.0,0.0,92,0.00,,,0.00,weatherlink.com 1.10,2013-12-09 12:45:00,
2013-12-09 07:00:00,18.2,16.0,30.34,NNE,24,0.0,0.0,92,0.00,,,0.00,weatherlink.com 1.10,2013-12-09 13:00:00,
2013-12-09 07:15:00,17.2,15.0,30.35,NE,40,0.0,1.0,91,0.00,,,0.00,weatherlink.com 1.10,2013-12-09 13:15:00,
2013-12-09 07:30:00,19.0,17.0,30.36,NNE,30,0.0,2.0,93,0.00,,,0.00,weatherlink.com 1.10,2013-12-09 13:30:00,
2013-12-09 07:45:00,19.4,18.0,30.36,NNE,20,0.0,1.0,92,0.00,,,0.00,weatherlink.com 1.10,2013-12-09 13:45:00,
2013-12-09 08:00:00,20.7,19.0,30.36,NE,46,1.0,3.0,93,0.00,,,0.00,weatherlink.com 1.10,2013-12-09 14:00:00,
2013-12-09 08:15:00,22.3,20.0,30.36,NE,35,2.0,8.0,92,0.00,,,0.00,weatherlink.com 1.10,2013-12-09 14:15:00,
2013-12-09 08:30:00,23.5,21.0,30.36,NNW,334,6.0,11.0,89,0.00,,,0.00,weatherlink.com 1.10,2013-12-09 14:30:00,
2013-12-09 08:45:00,24.3,21.0,30.36,NNE,22,7.0,12.0,87,0.00,,,0.00,weatherlink.com 1.10,2013-12-09 14:45:00,
2013-12-09 09:00:00,25.1,22.0,30.37,ENE,69,5.0,10.0,86,0.00,,,0.00,weatherlink.com 1.10,2013-12-09 15:00:00,
2013-12-09 09:15:00,25.9,22.0,30.37,ENE,60,3.0,10.0,84,0.00,,,0.00,weatherlink.com 1.10,2013-12-09 15:15:00,
2013-12-09 09:30:00,26.7,22.0,30.37,NNW,336,4.0,14.0,83,0.00,,,0.00,weatherlink.com 1.10,2013-12-09 15:30:00,
2013-12-09 09:45:00,26.9,22.0,30.38,ENE,76,5.0,12.0,83,0.00,,,0.00,weatherlink.com 1.10,2013-12-09 15:45:00,
2013-12-09 10:00:00,27.4,23.0,30.39,North,350,4.0,10.0,82,0.00,,,0.00,weatherlink.com 1.10,2013-12-09 16:00:00,
2013-12-09 10:15:00,26.7,22.0,30.38,NNE,26,6.0,14.0,81,0.00,,,0.00,weatherlink.com 1.10,2013-12-09 16:15:00,
2013-12-09 10:30:00,26.3,22.0,30.37,NNE,28,4.0,12.0,82,0.00,,,0.00,weatherlink.com 1.10,2013-12-09 16:30:00,
2013-12-09 10:45:00,26.3,22.0,30.36,ENE,60,5.0,12.0,83,0.00,,,0.00,weatherlink.com 1.10,2013-12-09 16:45:00,
2013-12-09 11:00:00,26.8,22.0,30.36,ENE,65,11.0,11.0,83,0.00,,,0.00,weatherlink.com 1.10,2013-12-09 17:00:00,
2013-12-09 11:15:00,27.0,22.0,30.36,ENE,71,4.0,10.0,81,0.00,,,0.00,weatherlink.com 1.10,2013-12-09 17:15:00,
2013-12-09 11:30:00,27.4,22.0,30.36,ENE,62,9.0,10.0,81,0.00,,,0.00,weatherlink.com 1.10,2013-12-09 17:30:00,
2013-12-09 11:45:00,28.0,23.0,30.34,NE,42,8.0,9.0,80,0.00,,,0.00,weatherlink.com 1.10,2013-12-09 17:45:00,
2013-12-09 12:00:00,28.5,23.0,30.33,NNW,327,7.0,9.0,79,0.00,,,0.00,weatherlink.com 1.10,2013-12-09 18:00:00,
2013-12-09 12:15:00,28.8,22.0,30.31,NE,42,6.0,9.0,77,0.00,,,0.00,weatherlink.com 1.10,2013-12-09 18:15:00,
2013-12-09 12:31:00,29.3,23.0,30.30,NE,48,4.0,12.0,76,0.00,,,0.00,weatherlink.com 1.10,2013-12-09 18:31:00,
2013-12-09 12:46:00,29.8,23.0,30.32,NE,49,9.0,11.0,75,0.00,,,0.00,weatherlink.com 1.10,2013-12-09 18:46:00,
2013-12-09 13:01:00,30.4,23.0,30.31,NE,44,5.0,8.0,73,0.00,,,0.00,weatherlink.com 1.10,2013-12-09 19:01:00,
2013-12-09 13:16:00,30.0,22.0,30.31,NNE,17,4.0,9.0,72,0.00,,,0.00,weatherlink.com 1.10,2013-12-09 19:16:00,
2013-12-09 13:31:00,29.7,22.0,30.32,NNE,22,3.0,8.0,72,0.00,,,0.00,weatherlink.com 1.10,2013-12-09 19:31:00,
2013-12-09 13:46:00,29.5,22.0,30.32,NW,325,5.0,10.0,73,0.00,,,0.00,weatherlink.com 1.10,2013-12-09 19:46:00,
2013-12-09 14:01:00,29.5,22.0,30.31,NNE,12,6.0,9.0,72,0.00,,,0.00,weatherlink.com 1.10,2013-12-09 20:01:00,
2013-12-09 14:16:00,29.4,21.0,30.31,NNE,17,6.0,10.0,72,0.00,,,0.00,weatherlink.com 1.10,2013-12-09 20:16:00,
2013-12-09 14:31:00,29.2,21.0,30.31,NNW,337,6.0,11.0,71,0.00,,,0.00,weatherlink.com 1.10,2013-12-09 20:31:00,
2013-12-09 14:46:00,28.8,20.0,30.31,NW,314,5.0,12.0,70,0.00,,,0.00,weatherlink.com 1.10,2013-12-09 20:46:00,
2013-12-09 15:01:00,28.4,20.0,30.31,NNE,23,11.0,11.0,71,0.00,,,0.00,weatherlink.com 1.10,2013-12-09 21:01:00,
2013-12-09 15:17:00,28.4,19.0,30.31,NNW,336,8.0,11.0,69,0.00,,,0.00,weatherlink.com 1.10,2013-12-09 21:17:00,
2013-12-09 15:31:00,28.5,20.0,30.31,NNE,28,6.0,12.0,69,0.00,,,0.00,weatherlink.com 1.10,2013-12-09 21:31:00,
2013-12-09 15:46:00,28.4,19.0,30.32,NNE,15,7.0,12.0,68,0.00,,,0.00,weatherlink.com 1.10,2013-12-09 21:46:00,
2013-12-09 16:01:00,28.3,19.0,30.32,NNE,31,5.0,11.0,67,0.00,,,0.00,weatherlink.com 1.10,2013-12-09 22:01:00,
2013-12-09 16:16:00,28.2,18.0,30.33,NNW,338,6.0,12.0,66,0.00,,,0.00,weatherlink.com 1.10,2013-12-09 22:16:00,
2013-12-09 16:31:00,27.7,17.0,30.33,NNW,342,6.0,14.0,65,0.00,,,0.00,weatherlink.com 1.10,2013-12-09 22:31:00,
2013-12-09 16:46:00,27.2,18.0,30.34,NNW,337,5.0,12.0,67,0.00,,,0.00,weatherlink.com 1.10,2013-12-09 22:46:00,
2013-12-09 17:01:00,26.6,17.0,30.34,NNW,340,5.0,12.0,66,0.00,,,0.00,weatherlink.com 1.10,2013-12-09 23:01:00,
2013-12-09 17:16:00,26.1,17.0,30.35,NNE,21,4.0,11.0,68,0.00,,,0.00,weatherlink.com 1.10,2013-12-09 23:16:00,
2013-12-09 17:31:00,25.7,17.0,30.36,NNW,336,6.0,8.0,69,0.00,,,0.00,weatherlink.com 1.10,2013-12-09 23:31:00,
2013-12-09 17:46:00,25.1,17.0,30.37,NNE,13,3.0,9.0,70,0.00,,,0.00,weatherlink.com 1.10,2013-12-09 23:46:00,
2013-12-09 18:01:00,24.6,16.0,30.39,NNE,15,3.0,7.0,71,0.00,,,0.00,weatherlink.com 1.10,2013-12-10 00:01:00,
2013-12-09 18:16:00,24.9,16.0,30.39,NNW,339,5.0,9.0,70,0.00,,,0.00,weatherlink.com 1.10,2013-12-10 00:16:00,
2013-12-09 18:31:00,25.0,16.0,30.39,NNE,26,3.0,8.0,69,0.00,,,0.00,weatherlink.com 1.10,2013-12-10 00:31:00,
2013-12-09 18:46:00,25.0,17.0,30.40,North,11,3.0,8.0,70,0.00,,,0.00,weatherlink.com 1.10,2013-12-10 00:46:00,
2013-12-09 19:01:00,25.0,16.0,30.40,NNW,337,5.0,9.0,69,0.00,,,0.00,weatherlink.com 1.10,2013-12-10 01:01:00,
2013-12-09 19:16:00,24.8,16.0,30.40,NE,40,6.0,10.0,69,0.00,,,0.00,weatherlink.com 1.10,2013-12-10 01:16:00,
2013-12-09 19:31:00,24.7,16.0,30.42,NNE,13,6.0,10.0,69,0.00,,,0.00,weatherlink.com 1.10,2013-12-10 01:31:00,
2013-12-09 19:46:00,24.7,16.0,30.43,NNW,340,6.0,9.0,69,0.00,,,0.00,weatherlink.com 1.10,2013-12-10 01:46:00,
2013-12-09 20:01:00,24.7,16.0,30.43,NE,44,5.0,8.0,69,0.00,,,0.00,weatherlink.com 1.10,2013-12-10 02:01:00,
2013-12-09 20:16:00,24.5,16.0,30.44,North,11,8.0,9.0,69,0.00,,,0.00,weatherlink.com 1.10,2013-12-10 02:16:00,
2013-12-09 20:31:00,24.5,16.0,30.45,NW,321,4.0,8.0,70,0.00,,,0.00,weatherlink.com 1.10,2013-12-10 02:31:00,
2013-12-09 20:46:00,24.5,16.0,30.46,NNE,19,3.0,7.0,71,0.00,,,0.00,weatherlink.com 1.10,2013-12-10 02:46:00,
2013-12-09 21:01:00,24.3,16.0,30.46,NNW,334,2.0,8.0,71,0.00,,,0.00,weatherlink.com 1.10,2013-12-10 03:01:00,
2013-12-09 21:16:00,24.2,17.0,30.47,WNW,296,2.0,4.0,73,0.00,,,0.00,weatherlink.com 1.10,2013-12-10 03:16:00,
2013-12-09 21:31:00,23.9,17.0,30.47,NNW,337,4.0,7.0,74,0.00,,,0.00,weatherlink.com 1.10,2013-12-10 03:31:00,
2013-12-09 21:46:00,23.6,17.0,30.48,NNW,348,5.0,8.0,75,0.00,,,0.00,weatherlink.com 1.10,2013-12-10 03:46:00,
2013-12-09 22:01:00,22.9,16.0,30.48,North,11,2.0,8.0,76,0.00,,,0.00,weatherlink.com 1.10,2013-12-10 04:01:00,
2013-12-09 22:16:00,22.2,16.0,30.48,North,11,0.0,5.0,77,0.00,,,0.00,weatherlink.com 1.10,2013-12-10 04:16:00,
2013-12-09 22:31:00,21.4,16.0,30.48,WNW,298,0.0,6.0,79,0.00,,,0.00,weatherlink.com 1.10,2013-12-10 04:31:00,
2013-12-09 22:46:00,20.6,15.0,30.50,ENE,63,0.0,7.0,80,0.00,,,0.00,weatherlink.com 1.10,2013-12-10 04:46:00,
2013-12-09 23:01:00,20.0,15.0,30.50,NW,314,1.0,3.0,80,0.00,,,0.00,weatherlink.com 1.10,2013-12-10 05:01:00,
2013-12-09 23:16:00,19.5,15.0,30.51,West,281,5.0,5.0,81,0.00,,,0.00,weatherlink.com 1.10,2013-12-10 05:16:00,
2013-12-09 23:31:00,18.9,13.0,30.50,NNW,348,5.0,5.0,79,0.00,,,0.00,weatherlink.com 1.10,2013-12-10 05:31:00,
2013-12-09 23:46:00,18.5,13.0,30.51,NW,307,4.0,4.0,78,0.00,,,0.00,weatherlink.com 1.10,2013-12-10 05:46:00,